M I D A S
Marine Information and Data Acquisition System
Tripno 802 of the Zeeleeuw from 2004-11-05 12:23:18 to 2004-11-05 15:29:03
Back to CruiseResearch ActivitiesStationsMapUnderway DataData graphs

EquipmentUnitsComment
TimeDGPSUTC
LatitudeDGPSDM.mWGS84
LongitudeDGPSDM.mWGS84
HeadingGyrodeg 
SOGDGPSknotsSpeed over ground
COGDGPSdegCourse over ground
DepthEcho soundermeters200 kHz
Missing or incorrect values are displayed as -999
Navigation data collected by the RV Zeeleeuw from 2004-11-05 08:18:08 to 2004-11-05 15:31:42
                                                                                    Next 1000 lines
Time Latitude Longitude Heading SOG COG Depth
2004-11-05 08:18:18 51°13.596 2°56.112 119.8 0.2 191 9.2
2004-11-05 08:18:24 51°13.596 2°56.112 117.9 0.1 194 9.2
2004-11-05 08:18:28 51°13.595 2°56.112 116.1 0.3 245 9.2
2004-11-05 08:18:34 51°13.596 2°56.11 114.7 0.5 264 9.1
2004-11-05 08:18:38 51°13.596 2°56.108 114 1.2 281 9
2004-11-05 08:18:43 51°13.597 2°56.104 113.9 1.6 287 9
2004-11-05 08:18:48 51°13.598 2°56.1 113.9 1.6 287 9
2004-11-05 08:18:52 51°13.599 2°56.096 114.3 2.3 290 -999
2004-11-05 08:19:00 51°13.601 2°56.088 114.4 2.6 291 -999
2004-11-05 08:19:04 51°13.602 2°56.083 114.4 2.7 291 -999
2004-11-05 08:19:10 51°13.604 2°56.076 114.4 2.9 292 -999
2004-11-05 08:19:14 51°13.605 2°56.071 114.3 3.1 290 -999
2004-11-05 08:19:20 51°13.607 2°56.063 114.1 3.2 290 -999
2004-11-05 08:19:24 51°13.608 2°56.057 114.1 3.3 289 -999
2004-11-05 08:19:30 51°13.61 2°56.048 114.4 3.4 289 -999
2004-11-05 08:19:34 51°13.611 2°56.042 115.3 3.5 290 -999
2004-11-05 08:19:39 51°13.613 2°56.035 116.7 3.6 291 -999
2004-11-05 08:19:42 51°13.615 2°56.03 118.4 3.8 292 -999
2004-11-05 08:19:50 51°13.619 2°56.018 120.1 3.9 293 -999
2004-11-05 08:19:54 51°13.621 2°56.011 121.9 4.1 296 -999
2004-11-05 08:19:58 51°13.623 2°56.005 123.5 4.1 298 -999
2004-11-05 08:20:02 51°13.625 2°55.998 124.7 4.2 299 -999
2004-11-05 08:20:10 51°13.63 2°55.985 125.6 4.2 301 -999
2004-11-05 08:20:14 51°13.633 2°55.979 126.2 4.3 301 -999
2004-11-05 08:20:20 51°13.636 2°55.969 126.9 4.3 302 -999
2004-11-05 08:20:22 51°13.638 2°55.966 127.3 4.4 303 -999
2004-11-05 08:20:30 51°13.643 2°55.953 127.7 4.5 303 -999
2004-11-05 08:20:34 51°13.646 2°55.946 127.8 4.5 304 -999
2004-11-05 08:20:40 51°13.65 2°55.936 127.8 4.6 303 -999
2004-11-05 08:20:42 51°13.652 2°55.932 127.6 4.6 304 -999
2004-11-05 08:20:48 51°13.656 2°55.922 127 4.7 303 -999
2004-11-05 08:20:54 51°13.66 2°55.911 126.5 4.8 303 -999
2004-11-05 08:21:00 51°13.664 2°55.9 125.8 4.8 302 -999
2004-11-05 08:21:02 51°13.666 2°55.897 125.2 4.9 302 -999
2004-11-05 08:21:10 51°13.671 2°55.882 124.5 4.8 302 -999
2004-11-05 08:21:14 51°13.674 2°55.875 123.8 4.7 300 -999
2004-11-05 08:21:18 51°13.677 2°55.868 122.8 4.6 300 -999
2004-11-05 08:21:22 51°13.68 2°55.861 121.9 4.6 300 -999
2004-11-05 08:21:30 51°13.684 2°55.847 120.9 4.6 300 -999
2004-11-05 08:21:34 51°13.686 2°55.84 119.9 4.5 298 -999
2004-11-05 08:21:38 51°13.689 2°55.833 119 4.4 297 -999
2004-11-05 08:21:42 51°13.691 2°55.826 118.3 4.4 296 -999
2004-11-05 08:21:50 51°13.695 2°55.812 117.7 4.4 296 -999
2004-11-05 08:21:55 51°13.698 2°55.802 116.8 4.7 293 -999
2004-11-05 08:21:58 51°13.699 2°55.796 115.8 4.8 292 -999
2004-11-05 08:22:04 51°13.702 2°55.784 114.6 4.9 291 -999
2004-11-05 08:22:10 51°13.705 2°55.772 113.3 4.9 290 -999
2004-11-05 08:22:14 51°13.707 2°55.764 112.2 4.9 290 -999
2004-11-05 08:22:20 51°13.709 2°55.754 111.3 4.3 287 -999
2004-11-05 08:22:22 51°13.71 2°55.751 110.5 3.4 287 -999
2004-11-05 08:22:30 51°13.711 2°55.742 108.7 2.8 284 -999
2004-11-05 08:22:34 51°13.711 2°55.739 106.5 2.4 283 14
2004-11-05 08:22:38 51°13.711 2°55.738 103.6 0.8 283 13.9
2004-11-05 08:22:44 51°13.712 2°55.739 98.6 0.8 283 13.8
2004-11-05 08:22:48 51°13.712 2°55.74 92.2 0.8 74 14
2004-11-05 08:22:54 51°13.713 2°55.744 86.5 0.8 74 14.3
2004-11-05 08:22:57 51°13.714 2°55.746 78.7 1.9 67 14.4
2004-11-05 08:23:03 51°13.715 2°55.75 69.2 1.9 67 14.8
2004-11-05 08:23:08 51°13.716 2°55.753 64.7 1.9 67 14.7
2004-11-05 08:23:12 51°13.716 2°55.754 61.3 1 69 14.7
2004-11-05 08:23:18 51°13.716 2°55.755 57.7 0.3 77 14.7
2004-11-05 08:23:24 51°13.715 2°55.754 55.8 0.4 188 14.7
2004-11-05 08:23:26 51°13.715 2°55.754 55 0.4 188 14.8
2004-11-05 08:23:34 51°13.713 2°55.751 54.9 1 213 14.8
2004-11-05 08:23:38 51°13.712 2°55.75 55.4 1.2 220 14.8
2004-11-05 08:23:42 51°13.711 2°55.749 56.4 1.2 218 14.9
2004-11-05 08:23:48 51°13.71 2°55.748 57.4 0.5 195 14.9
2004-11-05 08:23:54 51°13.71 2°55.749 56.9 0.4 162 14.8
2004-11-05 08:23:58 51°13.71 2°55.751 53.9 0.9 59 14.3
2004-11-05 08:24:04 51°13.712 2°55.754 49.5 1.4 52 14.8
2004-11-05 08:24:10 51°13.714 2°55.756 45 1.4 52 14.8
2004-11-05 08:24:14 51°13.716 2°55.758 37.5 1.9 34 14.6
2004-11-05 08:24:18 51°13.718 2°55.76 33 2.1 31 14.2
2004-11-05 08:24:22 51°13.72 2°55.762 26.8 1.8 25 13.5
2004-11-05 08:24:26 51°13.721 2°55.763 23.8 1.4 31 13.3
2004-11-05 08:24:34 51°13.722 2°55.764 21.5 0.7 38 13.2
2004-11-05 08:24:38 51°13.722 2°55.765 19.4 0.3 121 13.4
2004-11-05 08:24:44 51°13.721 2°55.765 18.2 0.7 168 13.5
2004-11-05 08:24:48 51°13.719 2°55.765 17.7 1.1 175 13.9
2004-11-05 08:24:54 51°13.717 2°55.764 17.9 1.4 181 14.2
2004-11-05 08:24:58 51°13.716 2°55.765 19.1 0.8 176 5.6
2004-11-05 08:25:04 51°13.716 2°55.766 20.1 0.3 133 -999
2004-11-05 08:25:10 51°13.717 2°55.766 18.1 0.5 41 -999
2004-11-05 08:25:14 51°13.719 2°55.767 12.9 1.4 16 -999
2004-11-05 08:25:19 51°13.721 2°55.768 7.3 1.6 11 -999
2004-11-05 08:25:22 51°13.722 2°55.768 1.6 1.5 8 5.3
2004-11-05 08:25:28 51°13.724 2°55.768 358.9 1 4 13
2004-11-05 08:25:34 51°13.723 2°55.769 357 0.5 44 12.9
2004-11-05 08:25:39 51°13.723 2°55.77 354.8 0.4 144 13
2004-11-05 08:25:44 51°13.721 2°55.771 353.3 1.1 152 13.4
2004-11-05 08:25:48 51°13.719 2°55.772 352.5 1.5 161 13.7
2004-11-05 08:25:52 51°13.717 2°55.772 352.3 1.8 159 14
2004-11-05 08:25:59 51°13.715 2°55.774 352.7 1.3 159 -999
2004-11-05 08:26:02 51°13.715 2°55.774 352.7 0.6 149 -999
2004-11-05 08:26:10 51°13.716 2°55.773 348.3 0.2 10 -999
2004-11-05 08:26:14 51°13.718 2°55.772 342.1 1.2 337 -999
2004-11-05 08:26:20 51°13.721 2°55.769 334.7 2.2 335 -999
2004-11-05 08:26:22 51°13.723 2°55.767 328 2.8 325 -999
2004-11-05 08:26:28 51°13.727 2°55.762 324.5 3.4 322 -999
2004-11-05 08:26:34 51°13.732 2°55.755 322.9 3.4 322 5.5
2004-11-05 08:26:38 51°13.736 2°55.75 321.5 3.7 319 11.5
2004-11-05 08:26:44 51°13.743 2°55.741 320.6 4.4 317 11.6
2004-11-05 08:26:46 51°13.745 2°55.738 320.2 4.7 316 11.6
2004-11-05 08:27:02 51°13.763 2°55.711 321.1 5.9 318 11.6
2004-11-05 08:27:08 51°13.771 2°55.7 322.4 6.3 319 11.5
2004-11-05 08:27:14 51°13.78 2°55.689 323.4 6.5 319 11.8
2004-11-05 08:27:19 51°13.787 2°55.68 325 6.9 322 11.6
2004-11-05 08:27:23 51°13.793 2°55.672 326.6 7.2 323 11.5
2004-11-05 08:27:30 51°13.805 2°55.659 328.4 7.3 324 11.8
2004-11-05 08:27:34 51°13.812 2°55.652 330 7.7 326 11.9
2004-11-05 08:27:39 51°13.821 2°55.643 331.6 7.8 327 11.9
2004-11-05 08:27:44 51°13.831 2°55.634 333.8 8.1 330 11.7
2004-11-05 08:27:57 51°13.858 2°55.614 339.2 8.5 335 11.4
2004-11-05 08:28:02 51°13.869 2°55.606 339.7 8.6 336 11.6
2004-11-05 08:28:06 51°13.878 2°55.599 340 8.7 335 11.2
2004-11-05 08:28:12 51°13.891 2°55.59 340.2 8.8 336 11
2004-11-05 08:28:16 51°13.9 2°55.583 340.3 8.8 336 11.8
2004-11-05 08:28:22 51°13.914 2°55.574 340.4 8.8 336 11
2004-11-05 08:28:26 51°13.923 2°55.567 340.4 9 336 11.9
2004-11-05 08:28:32 51°13.937 2°55.558 340.7 9 337 11.1
2004-11-05 08:28:36 51°13.946 2°55.551 341.3 9 337 11.5
2004-11-05 08:28:42 51°13.96 2°55.541 341.1 9.1 336 11.7
2004-11-05 08:28:47 51°13.971 2°55.533 340.8 9.1 336 12.1
2004-11-05 08:28:52 51°13.983 2°55.525 340.8 9.1 336 12.1
2004-11-05 08:28:57 51°13.995 2°55.517 341.1 9.1 336 12.5
2004-11-05 08:29:02 51°14.006 2°55.508 340.5 9.2 336 12.3
2004-11-05 08:29:06 51°14.015 2°55.501 339.9 9.2 335 12
2004-11-05 08:29:10 51°14.025 2°55.495 340.1 9.2 335 11.7
2004-11-05 08:29:16 51°14.039 2°55.485 340.2 9.2 336 11.7
2004-11-05 08:29:22 51°14.052 2°55.474 339.1 9.2 335 11.7
2004-11-05 08:29:26 51°14.062 2°55.467 338.9 9.2 335 11.7
2004-11-05 08:29:32 51°14.076 2°55.457 339.4 9.2 336 11.6
2004-11-05 08:29:38 51°14.09 2°55.446 339.6 9.3 336 11.7
2004-11-05 08:29:42 51°14.1 2°55.439 339.3 9.5 335 11.5
2004-11-05 08:29:47 51°14.112 2°55.43 339.5 9.8 335 11.6
2004-11-05 08:29:52 51°14.125 2°55.421 339.8 9.8 335 11.6
2004-11-05 08:29:56 51°14.135 2°55.412 338.9 10.1 334 12
2004-11-05 08:30:02 51°14.15 2°55.399 337.3 10.3 333 11.9
2004-11-05 08:30:04 51°14.155 2°55.394 336 10.6 331 12.5
2004-11-05 08:30:12 51°14.175 2°55.375 334.5 10.6 331 12.5
2004-11-05 08:30:15 51°14.182 2°55.367 333.2 10.7 330 12.3
2004-11-05 08:30:20 51°14.195 2°55.355 332.4 10.9 328 12.3
2004-11-05 08:30:27 51°14.212 2°55.336 329.8 10.8 323 12.3
2004-11-05 08:30:32 51°14.224 2°55.32 326.7 10.8 321 12.3
2004-11-05 08:30:44 51°14.251 2°55.282 322.8 10.9 319 12.3
2004-11-05 08:30:48 51°14.26 2°55.268 320.7 10.9 315 12.1
2004-11-05 08:30:54 51°14.271 2°55.247 319 10.9 315 12.1
2004-11-05 08:30:58 51°14.279 2°55.232 317.6 11 312 12.2
2004-11-05 08:31:04 51°14.292 2°55.21 317.2 11 312 12.1
2004-11-05 08:31:09 51°14.303 2°55.191 315.8 11 311 12
2004-11-05 08:31:14 51°14.31 2°55.172 313.3 11.1 309 12
2004-11-05 08:31:18 51°14.318 2°55.156 311.3 11.1 306 11.8
2004-11-05 08:31:24 51°14.328 2°55.132 310.4 11.2 305 11.9
2004-11-05 08:31:30 51°14.339 2°55.107 309.7 11.3 304 11.9
2004-11-05 08:31:34 51°14.345 2°55.089 309.2 11.4 304 11.5
2004-11-05 08:31:38 51°14.352 2°55.071 308.8 11.4 304 12
2004-11-05 08:31:42 51°14.359 2°55.054 308.7 11.3 304 11.7
2004-11-05 08:31:50 51°14.373 2°55.021 308.7 11.3 304 12
2004-11-05 08:31:54 51°14.38 2°55.005 308.5 11.3 304 11.6
2004-11-05 08:31:58 51°14.387 2°54.988 309.2 11.4 304 11.7
2004-11-05 08:32:04 51°14.398 2°54.964 310.6 11.5 306 11.6
2004-11-05 08:32:08 51°14.406 2°54.948 312 11.4 308 11.9
2004-11-05 08:32:14 51°14.419 2°54.925 314.2 11.4 308 12.3
2004-11-05 08:32:18 51°14.428 2°54.91 318 11.7 313 11.9
2004-11-05 08:32:24 51°14.441 2°54.887 319.6 11.9 314 11.7
2004-11-05 08:32:30 51°14.455 2°54.862 319.8 12.1 312 11.6
2004-11-05 08:32:34 51°14.463 2°54.845 318 12.6 311 11.6
2004-11-05 08:32:38 51°14.471 2°54.827 315 12.1 307 11.8
2004-11-05 08:32:44 51°14.483 2°54.801 312.8 12.5 305 11.4
2004-11-05 08:32:48 51°14.49 2°54.783 309.8 12.3 303 11.8
2004-11-05 08:32:58 51°14.508 2°54.736 307.8 12.5 302 11.6
2004-11-05 08:33:04 51°14.519 2°54.707 307.1 12.9 300 11.7
2004-11-05 08:33:10 51°14.529 2°54.677 305.5 13 299 11.3
2004-11-05 08:33:14 51°14.535 2°54.656 303.6 12.9 298 11.7
2004-11-05 08:33:20 51°14.544 2°54.625 301.4 12.9 295 11.4
2004-11-05 08:33:24 51°14.55 2°54.603 299.8 12.8 293 11.5
2004-11-05 08:33:30 51°14.557 2°54.572 298.4 12.7 292 11.3
2004-11-05 08:33:34 51°14.563 2°54.551 297.4 13 291 11.4
2004-11-05 08:33:40 51°14.57 2°54.519 296.9 13 291 11.4
2004-11-05 08:33:44 51°14.575 2°54.498 297 13 290 91.9
2004-11-05 08:33:50 51°14.583 2°54.466 296.2 13 291 11.5
2004-11-05 08:33:54 51°14.588 2°54.445 296.1 12.8 290 11.2
2004-11-05 08:34:00 51°14.595 2°54.413 295.8 12.9 290 11.7
2004-11-05 08:34:04 51°14.6 2°54.393 296.1 12.9 291 11.6
2004-11-05 08:34:10 51°14.608 2°54.36 296.1 13 291 11.6
2004-11-05 08:34:14 51°14.613 2°54.339 296.4 13.2 292 11.5
2004-11-05 08:34:20 51°14.621 2°54.305 296.8 13.2 292 11.8
2004-11-05 08:34:22 51°14.624 2°54.294 296.7 13.2 291 12
2004-11-05 08:34:30 51°14.635 2°54.249 296.8 13.3 292 12.1
2004-11-05 08:34:34 51°14.641 2°54.227 296.9 13.4 292 12.2
2004-11-05 08:34:40 51°14.65 2°54.195 297.9 13.4 292 12.1
2004-11-05 08:34:44 51°14.657 2°54.173 299.3 13.4 295 12.2
2004-11-05 08:34:50 51°14.666 2°54.141 300.5 13.5 295 12.2
2004-11-05 08:34:54 51°14.673 2°54.12 301.2 13.4 297 12.1
2004-11-05 08:34:58 51°14.679 2°54.099 301.7 13.5 297 12.1
2004-11-05 08:35:06 51°14.693 2°54.056 302.2 13.5 298 11.9
2004-11-05 08:35:10 51°14.7 2°54.036 302.4 13.4 298 11.9
2004-11-05 08:35:14 51°14.707 2°54.014 302.6 13.4 297 11.6
2004-11-05 08:35:18 51°14.714 2°53.994 303 13.4 298 11.7
2004-11-05 08:35:24 51°14.724 2°53.962 302.7 13.4 298 11.5
2004-11-05 08:35:30 51°14.733 2°53.931 302.7 13.5 297 11.7
2004-11-05 08:35:34 51°14.739 2°53.911 302.5 13.1 297 11.3
2004-11-05 08:35:40 51°14.749 2°53.88 301.8 13.1 296 11.3
2004-11-05 08:35:44 51°14.756 2°53.859 302.6 13.1 298 10.8
2004-11-05 08:35:50 51°14.766 2°53.829 302.6 13.1 298 10.9
2004-11-05 08:35:54 51°14.773 2°53.808 302.9 13 298 11.2
2004-11-05 08:36:00 51°14.782 2°53.778 303 13.2 297 11
2004-11-05 08:36:04 51°14.789 2°53.757 302.9 13.2 298 11.1
2004-11-05 08:36:10 51°14.799 2°53.726 302.9 13.2 298 11.1
2004-11-05 08:36:14 51°14.807 2°53.705 303.2 13.3 299 11.2
2004-11-05 08:36:20 51°14.818 2°53.673 303.4 13.2 298 11
2004-11-05 08:36:24 51°14.825 2°53.653 303.5 13 298 11.4
2004-11-05 08:36:30 51°14.835 2°53.622 303.7 13.1 297 11
2004-11-05 08:36:34 51°14.842 2°53.601 302.7 13.1 297 10.7
2004-11-05 08:36:48 51°14.866 2°53.529 303.3 13.3 298 11.2
2004-11-05 08:36:52 51°14.873 2°53.508 303.3 13.2 298 11.3
2004-11-05 08:37:04 51°14.893 2°53.446 303 13.1 297 11.2
2004-11-05 08:37:08 51°14.899 2°53.426 303.1 13 297 10.9
2004-11-05 08:37:14 51°14.91 2°53.395 303.3 12.9 298 11.3
2004-11-05 08:37:18 51°14.916 2°53.375 303.5 13 299 11
2004-11-05 08:37:22 51°14.924 2°53.355 303.7 13 299 11.2
2004-11-05 08:37:36 51°14.949 2°53.281 303.4 13.1 298 11.1
2004-11-05 08:37:40 51°14.955 2°53.261 303.2 13.2 298 11.4
2004-11-05 08:37:46 51°14.965 2°53.231 304 13.2 298 11.1
2004-11-05 08:37:50 51°14.972 2°53.21 303.8 13.2 298 11.1
2004-11-05 08:37:56 51°14.983 2°53.179 304.1 13.2 299 11.3
2004-11-05 08:38:00 51°14.991 2°53.159 304.3 13.2 299 11
2004-11-05 08:38:06 51°15.001 2°53.128 304.4 13.2 300 11.5
2004-11-05 08:38:10 51°15.008 2°53.107 304.5 13.3 298 11.4
2004-11-05 08:38:16 51°15.019 2°53.077 303.7 13.2 299 11
2004-11-05 08:38:22 51°15.03 2°53.046 304.6 13.1 299 11.1
2004-11-05 08:38:24 51°15.033 2°53.036 304.3 13.2 298 11.1
2004-11-05 08:38:30 51°15.044 2°53.005 304 13.1 297 11
2004-11-05 08:38:34 51°15.05 2°52.984 302.9 13.2 297 10.9
2004-11-05 08:38:40 51°15.059 2°52.953 301.9 13.1 296 10.9
2004-11-05 08:38:46 51°15.069 2°52.922 301.7 13.1 296 11.2
2004-11-05 08:38:50 51°15.075 2°52.901 301.5 13.2 296 11.4
2004-11-05 08:38:56 51°15.084 2°52.87 302 13.3 296 11.5
2004-11-05 08:39:00 51°15.09 2°52.851 301.7 13.3 296 11.3
2004-11-05 08:39:06 51°15.099 2°52.82 301.5 13 297 11.5
2004-11-05 08:39:10 51°15.105 2°52.8 302.1 12.8 295 11.5
2004-11-05 08:39:14 51°15.111 2°52.779 301.6 12.9 296 11.7
2004-11-05 08:39:20 51°15.121 2°52.748 301.9 13.1 296 11.6
2004-11-05 08:39:26 51°15.131 2°52.716 301.5 13.1 295 11.9
2004-11-05 08:39:30 51°15.138 2°52.694 301.8 13.2 296 11.7
2004-11-05 08:39:34 51°15.145 2°52.673 301.8 13.2 296 11.9
2004-11-05 08:39:40 51°15.155 2°52.641 302.2 13.2 297 12
2004-11-05 08:39:44 51°15.162 2°52.62 302.4 13.2 296 11.8
2004-11-05 08:39:50 51°15.171 2°52.589 302 13.2 297 11.7
2004-11-05 08:39:54 51°15.178 2°52.569 301.9 13.2 298 12
2004-11-05 08:40:00 51°15.188 2°52.538 302.4 13.4 297 12.1
2004-11-05 08:40:06 51°15.198 2°52.505 302.2 13.4 296 12.4
2004-11-05 08:40:10 51°15.204 2°52.485 301.4 13 295 11.9
2004-11-05 08:40:14 51°15.209 2°52.464 299.8 13 293 12.3
2004-11-05 08:40:20 51°15.218 2°52.433 299.6 13.2 294 12.2
2004-11-05 08:40:26 51°15.226 2°52.4 299 13.1 293 12.2
2004-11-05 08:40:30 51°15.231 2°52.378 298.3 13.2 292 12.3
2004-11-05 08:40:36 51°15.24 2°52.345 297.6 13.2 291 12.4
2004-11-05 08:40:40 51°15.246 2°52.323 297.4 13.3 292 12.5
2004-11-05 08:40:46 51°15.253 2°52.29 297.1 13.3 290 12.7
2004-11-05 08:40:50 51°15.258 2°52.268 296.1 13.4 290 12.6
2004-11-05 08:40:56 51°15.267 2°52.234 296 13.4 291 12.6
2004-11-05 08:41:00 51°15.272 2°52.212 296.1 13.4 291 12.6
2004-11-05 08:41:06 51°15.28 2°52.178 295.9 13.4 290 12.8
2004-11-05 08:41:10 51°15.285 2°52.156 295.4 13.1 289 12.6
2004-11-05 08:41:14 51°15.289 2°52.134 294.4 13.1 288 12.9
2004-11-05 08:41:22 51°15.298 2°52.089 292.4 13.3 288 12.8
2004-11-05 08:41:28 51°15.304 2°52.055 291.5 13.3 285 13
2004-11-05 08:41:34 51°15.309 2°52.021 290.8 13.4 285 12.9
2004-11-05 08:41:38 51°15.313 2°51.998 289.4 13.5 283 13
2004-11-05 08:41:44 51°15.317 2°51.963 288.1 13.4 283 13
2004-11-05 08:41:46 51°15.319 2°51.951 287.3 13.3 281 13.2
2004-11-05 08:41:54 51°15.324 2°51.905 286.9 13.4 281 12.8
2004-11-05 08:41:58 51°15.327 2°51.882 285.9 13.3 280 13.1
2004-11-05 08:42:04 51°15.33 2°51.847 284.3 13.3 279 13.1
2004-11-05 08:42:08 51°15.333 2°51.823 284.3 13.3 279 13.5
2004-11-05 08:42:14 51°15.336 2°51.788 283.9 13.3 279 13.4
2004-11-05 08:42:18 51°15.338 2°51.765 283.1 13.4 278 13.4
2004-11-05 08:42:22 51°15.34 2°51.742 283.6 13.3 278 13.4
2004-11-05 08:42:28 51°15.343 2°51.706 283.6 13.2 278 13.3
2004-11-05 08:42:34 51°15.346 2°51.672 282.9 13.2 278 13.3
2004-11-05 08:42:38 51°15.349 2°51.648 283.2 13.3 278 13.2
2004-11-05 08:42:44 51°15.352 2°51.613 283.4 13.3 279 13.4
2004-11-05 08:42:48 51°15.354 2°51.59 283.4 13.3 279 13.4
2004-11-05 08:42:54 51°15.357 2°51.555 283.6 13.3 279 13.5
2004-11-05 08:42:58 51°15.359 2°51.531 283.4 13.4 279 13.7
2004-11-05 08:43:04 51°15.362 2°51.496 283.1 13.3 278 13.4
2004-11-05 08:43:08 51°15.364 2°51.473 282.6 13.3 277 13.4
2004-11-05 08:43:14 51°15.367 2°51.438 283.1 12.8 278 13.8
2004-11-05 08:43:18 51°15.369 2°51.416 283.1 12.9 279 13.4
2004-11-05 08:43:24 51°15.373 2°51.382 284 13.1 279 13.5
2004-11-05 08:43:26 51°15.374 2°51.37 284.3 13.2 279 13.7
2004-11-05 08:43:34 51°15.379 2°51.324 284.6 13.2 279 13.7
2004-11-05 08:43:38 51°15.381 2°51.301 284.5 13.3 278 13.6
2004-11-05 08:43:44 51°15.385 2°51.266 284.5 13.3 280 13.6
2004-11-05 08:43:48 51°15.387 2°51.243 284.1 13.3 279 13.7
2004-11-05 08:43:53 51°15.391 2°51.213 284.5 13.4 280 13.8
2004-11-05 08:43:58 51°15.394 2°51.185 285 13.4 279 13.9
2004-11-05 08:44:04 51°15.397 2°51.15 284.7 13.3 279 14
2004-11-05 08:44:08 51°15.4 2°51.126 284.3 13.4 279 13.8
2004-11-05 08:44:14 51°15.403 2°51.092 284.6 13.3 280 13.9
2004-11-05 08:44:20 51°15.406 2°51.057 284.5 13.2 279 13.9
2004-11-05 08:44:22 51°15.407 2°51.046 284.6 13.2 279 13.8
2004-11-05 08:44:28 51°15.41 2°51.012 284 13.2 279 13.8
2004-11-05 08:44:34 51°15.414 2°50.977 284.7 13.1 280 13.9
2004-11-05 08:44:38 51°15.417 2°50.953 284.6 13.4 280 14
2004-11-05 08:44:44 51°15.421 2°50.919 285.3 13.4 280 13.9
2004-11-05 08:44:48 51°15.423 2°50.896 285.5 13.2 280 13.9
2004-11-05 08:44:54 51°15.427 2°50.86 285 13.2 280 14.1
2004-11-05 08:44:58 51°15.43 2°50.837 285 13.3 280 13.9
2004-11-05 08:45:04 51°15.433 2°50.802 284.5 13.3 280 13.9
2004-11-05 08:45:08 51°15.436 2°50.778 284.5 13.5 279 14
2004-11-05 08:45:14 51°15.44 2°50.743 284.7 13.4 280 13.9
2004-11-05 08:45:18 51°15.442 2°50.719 284.9 13.3 279 13.7
2004-11-05 08:45:24 51°15.446 2°50.685 284.7 13.4 278 13.6
2004-11-05 08:45:28 51°15.448 2°50.662 284.1 13.3 279 13.8
2004-11-05 08:45:32 51°15.45 2°50.639 284.5 13.3 280 13.8
2004-11-05 08:45:38 51°15.455 2°50.604 285.7 13.4 281 13.8
2004-11-05 08:45:42 51°15.458 2°50.581 286.8 13.4 282 13.9
2004-11-05 08:45:48 51°15.462 2°50.546 287 13.4 281 14
2004-11-05 08:45:54 51°15.467 2°50.511 287.2 13.4 281 14.1
2004-11-05 08:45:58 51°15.469 2°50.488 287.3 13.2 282 14
2004-11-05 08:46:04 51°15.474 2°50.454 287.4 13.2 282 14
2004-11-05 08:46:06 51°15.475 2°50.443 287.1 13.3 282 14
2004-11-05 08:46:14 51°15.482 2°50.397 287.2 13.4 282 14.2
2004-11-05 08:46:18 51°15.484 2°50.374 287.4 13.3 281 14.2
2004-11-05 08:46:24 51°15.489 2°50.339 287.6 13.3 281 14.1
2004-11-05 08:46:27 51°15.491 2°50.321 287.9 13.5 282 14
2004-11-05 08:46:33 51°15.496 2°50.287 287.4 13.4 283 13.9
2004-11-05 08:46:38 51°15.5 2°50.258 286.7 13.4 281 14.2
2004-11-05 08:46:44 51°15.504 2°50.223 286.8 13.4 281 13.8
2004-11-05 08:46:48 51°15.507 2°50.2 286.4 13.1 280 13.9
2004-11-05 08:46:52 51°15.51 2°50.178 285.9 13.1 280 13.7
2004-11-05 08:46:58 51°15.513 2°50.144 286.5 13.1 281 14
2004-11-05 08:47:02 51°15.516 2°50.121 286.8 12.9 280 13.6
2004-11-05 08:47:06 51°15.519 2°50.098 286.1 13.1 280 13.9
2004-11-05 08:47:14 51°15.524 2°50.053 285.9 13.1 280 13.9
2004-11-05 08:47:18 51°15.527 2°50.03 286.9 13.2 282 14.1
2004-11-05 08:47:24 51°15.532 2°49.996 287.3 13.3 281 14.2
2004-11-05 08:47:27 51°15.534 2°49.979 287.1 13.2 281 14.1
2004-11-05 08:47:34 51°15.539 2°49.94 286.6 13.3 281 14
2004-11-05 08:47:40 51°15.543 2°49.905 286.6 13.1 281 13.9
2004-11-05 08:47:42 51°15.544 2°49.894 286.6 13.2 282 14
2004-11-05 08:47:50 51°15.55 2°49.848 286.9 13.3 282 14.1
2004-11-05 08:47:54 51°15.554 2°49.825 287.4 13.3 283 14
2004-11-05 08:47:58 51°15.557 2°49.802 287.7 13.3 282 14
2004-11-05 08:48:04 51°15.561 2°49.768 287.4 13.4 282 14
2004-11-05 08:48:08 51°15.564 2°49.744 287.1 13.4 282 14.3
2004-11-05 08:48:14 51°15.569 2°49.709 287.2 13.3 282 14
2004-11-05 08:48:18 51°15.572 2°49.686 286.6 13.2 282 14
2004-11-05 08:48:22 51°15.575 2°49.663 286.6 13.3 281 13.9
2004-11-05 08:48:28 51°15.579 2°49.629 287.1 13.5 280 13.9
2004-11-05 08:48:33 51°15.584 2°49.599 287.4 13.3 282 14
2004-11-05 08:48:38 51°15.588 2°49.57 287.7 13.4 283 14
2004-11-05 08:48:42 51°15.591 2°49.547 287.7 13.3 283 13.7
2004-11-05 08:48:48 51°15.595 2°49.512 286.7 13.4 283 13.6
2004-11-05 08:48:54 51°15.6 2°49.478 287.3 13.4 283 13.7
2004-11-05 08:48:57 51°15.602 2°49.46 287.2 13.3 280 13.6
2004-11-05 08:49:03 51°15.606 2°49.426 286.6 13.3 282 13.4
2004-11-05 08:49:09 51°15.61 2°49.391 287 13.3 281 13.3
2004-11-05 08:49:14 51°15.614 2°49.362 286.6 13.3 280 13.1
2004-11-05 08:49:18 51°15.617 2°49.339 286.8 13.2 281 12.9
2004-11-05 08:49:23 51°15.621 2°49.31 286.8 13.4 281 12.7
2004-11-05 08:49:26 51°15.623 2°49.293 287.1 13.4 282 12.4
2004-11-05 08:49:34 51°15.629 2°49.246 287 13.4 280 12
2004-11-05 08:49:42 51°15.635 2°49.2 286.7 13.4 282 12.2
2004-11-05 08:49:48 51°15.64 2°49.166 287.1 13.4 282 12
2004-11-05 08:49:50 51°15.642 2°49.155 288.1 13.3 283 11.9
2004-11-05 08:49:58 51°15.648 2°49.109 288 13.3 283 11.6
2004-11-05 08:50:02 51°15.651 2°49.086 286.7 13.3 283 11.5
2004-11-05 08:50:06 51°15.654 2°49.063 287.5 13.3 282 11.5
2004-11-05 08:50:11 51°15.658 2°49.035 287.7 13.2 282 11.5
2004-11-05 08:50:18 51°15.663 2°48.994 287.1 13.2 282 11.4
2004-11-05 08:50:22 51°15.666 2°48.971 286.6 13.6 281 11.3
2004-11-05 08:50:26 51°15.669 2°48.948 286.5 13.5 281 11.2
2004-11-05 08:50:31 51°15.673 2°48.919 286.6 13 282 11.3
2004-11-05 08:50:34 51°15.675 2°48.901 287.2 13 282 11.4
2004-11-05 08:50:41 51°15.68 2°48.862 287.6 13.2 282 11.4
2004-11-05 08:50:46 51°15.684 2°48.834 286.9 13.2 283 11.6
2004-11-05 08:50:49 51°15.686 2°48.816 286.9 13.2 283 11.6
2004-11-05 08:50:56 51°15.691 2°48.776 286.9 13.3 282 11.7
2004-11-05 08:51:02 51°15.695 2°48.744 287.9 12.8 280 11.4
2004-11-05 08:51:08 51°15.699 2°48.71 286.2 12.8 280 11.9
2004-11-05 08:51:10 51°15.7 2°48.699 286.1 12.9 280 11.8
2004-11-05 08:51:16 51°15.705 2°48.664 286.6 12.9 283 12
2004-11-05 08:51:22 51°15.709 2°48.63 286.5 13 281 11.9
2004-11-05 08:51:26 51°15.712 2°48.608 287.2 12.9 283 12.1
2004-11-05 08:51:32 51°15.717 2°48.574 287 13.1 281 12.2
2004-11-05 08:51:35 51°15.719 2°48.557 287.7 13.2 282 12.2
2004-11-05 08:51:41 51°15.723 2°48.523 286.6 13.2 282 12.2
2004-11-05 08:51:45 51°15.726 2°48.5 287.1 13.2 282 12.4
2004-11-05 08:51:51 51°15.731 2°48.466 287.6 13.2 282 12.5
2004-11-05 08:51:55 51°15.733 2°48.443 287 13.3 281 12.3
2004-11-05 08:52:02 51°15.739 2°48.403 287.3 13.3 282 12.4
2004-11-05 08:52:06 51°15.741 2°48.38 286.9 13.3 281 12.8
2004-11-05 08:52:11 51°15.745 2°48.352 287 13.3 282 12.8
2004-11-05 08:52:14 51°15.748 2°48.335 286.8 13.3 280 12.9
2004-11-05 08:52:27 51°15.757 2°48.26 287.5 13.1 281 13
2004-11-05 08:52:30 51°15.759 2°48.243 287.2 13.1 280 13.3
2004-11-05 08:52:38 51°15.765 2°48.197 287 13.3 282 13.5
2004-11-05 08:52:48 51°15.772 2°48.14 287.4 13.1 281 13.6
2004-11-05 08:52:51 51°15.774 2°48.123 286.9 13.1 281 13.7
2004-11-05 08:52:57 51°15.778 2°48.09 287 13 280 14.2
2004-11-05 08:53:02 51°15.781 2°48.062 286.9 12.9 282 14.3
2004-11-05 08:53:07 51°15.785 2°48.034 287.4 13 282 14.3
2004-11-05 08:53:19 51°15.794 2°47.965 287.8 13.3 283 15
2004-11-05 08:53:25 51°15.799 2°47.93 288.1 13.4 282 15
2004-11-05 08:53:31 51°15.803 2°47.896 288 13.2 282 15.4
2004-11-05 08:53:35 51°15.806 2°47.873 287.7 13.2 282 15.7
2004-11-05 08:53:40 51°15.81 2°47.844 287.5 13.3 282 15.8
2004-11-05 08:53:44 51°15.813 2°47.821 288.1 13.4 282 15.7
2004-11-05 08:53:49 51°15.818 2°47.792 287.9 13.4 282 15.5
2004-11-05 08:53:55 51°15.822 2°47.757 288 13.2 281 16.1
2004-11-05 08:54:02 51°15.827 2°47.716 287.6 13.2 283 15.9
2004-11-05 08:54:06 51°15.83 2°47.693 287.4 13.3 281 16
2004-11-05 08:54:10 51°15.834 2°47.67 288.3 13.4 282 16.1
2004-11-05 08:54:14 51°15.836 2°47.647 287.3 13.4 282 16.2
2004-11-05 08:54:20 51°15.841 2°47.613 288.1 13.4 282 16.5
2004-11-05 08:54:26 51°15.846 2°47.578 287.6 13.4 281 16.6
2004-11-05 08:54:30 51°15.849 2°47.555 287.8 13.5 282 16.8
2004-11-05 08:54:35 51°15.852 2°47.526 287.7 13.5 281 16.8
2004-11-05 08:54:39 51°15.856 2°47.502 287.4 13.4 283 16.9
2004-11-05 08:54:45 51°15.86 2°47.467 287.7 13.6 281 17
2004-11-05 08:54:49 51°15.863 2°47.444 287.4 13.5 282 17.2
2004-11-05 08:54:55 51°15.868 2°47.408 288.2 13.5 283 17.2
2004-11-05 08:54:58 51°15.87 2°47.391 287.6 13.5 281 17
2004-11-05 08:55:05 51°15.875 2°47.351 287.6 13.5 282 16.9
2004-11-05 08:55:10 51°15.879 2°47.322 287.3 13.5 281 17.4
2004-11-05 08:55:14 51°15.882 2°47.299 288.1 13.4 282 17.3
2004-11-05 08:55:17 51°15.884 2°47.281 287.4 13.4 281 17.3
2004-11-05 08:55:25 51°15.89 2°47.234 287.4 13.4 281 17.2
2004-11-05 08:55:29 51°15.893 2°47.211 287.7 13.3 281 17.3
2004-11-05 08:55:35 51°15.897 2°47.176 287.1 13.5 280 17.5
2004-11-05 08:55:39 51°15.9 2°47.152 288 13.5 282 17.5
2004-11-05 08:55:45 51°15.905 2°47.117 287.9 13.5 282 17.6
2004-11-05 08:55:50 51°15.909 2°47.088 287.7 13.5 282 17.5
2004-11-05 08:55:56 51°15.913 2°47.053 287.4 13.5 282 17.7
2004-11-05 08:55:59 51°15.916 2°47.035 287.8 13.5 281 17.9
2004-11-05 08:56:06 51°15.921 2°46.995 287.9 13.4 282 17.5
2004-11-05 08:56:10 51°15.924 2°46.971 287.4 13.5 281 17.8
2004-11-05 08:56:15 51°15.927 2°46.942 287.8 13.4 283 17.7
2004-11-05 08:56:20 51°15.931 2°46.913 287.7 13.4 281 17.7
2004-11-05 08:56:25 51°15.934 2°46.884 288.2 13.4 282 17.5
2004-11-05 08:56:30 51°15.938 2°46.855 287.9 13.4 280 17.5
2004-11-05 08:56:33 51°15.94 2°46.838 287.6 13.3 283 17.2
2004-11-05 08:56:39 51°15.945 2°46.803 287.4 13.3 281 17.1
2004-11-05 08:56:45 51°15.949 2°46.769 287.8 13.2 283 17.2
2004-11-05 08:56:50 51°15.953 2°46.74 287.6 13.4 282 17.2
2004-11-05 08:56:55 51°15.956 2°46.711 287.6 13.4 281 17.1
2004-11-05 08:56:59 51°15.959 2°46.688 287.4 13.4 280 17
2004-11-05 08:57:05 51°15.963 2°46.653 287 13.3 281 16.7
2004-11-05 08:57:10 51°15.967 2°46.624 287.1 13.4 282 16.7
2004-11-05 08:57:14 51°15.969 2°46.6 286.6 13.4 282 16.3
2004-11-05 08:57:19 51°15.973 2°46.572 287.1 13.3 281 16.4
2004-11-05 08:57:25 51°15.978 2°46.536 287 13.3 281 16.3
2004-11-05 08:57:29 51°15.981 2°46.513 287.4 13.2 282 15.9
2004-11-05 08:57:35 51°15.985 2°46.479 287.4 13.2 282 15.8
2004-11-05 08:57:40 51°15.989 2°46.451 287.5 13.2 282 15.1
2004-11-05 08:57:46 51°15.993 2°46.416 287.2 13.5 281 14.9
2004-11-05 08:57:50 51°15.996 2°46.393 287.7 13.5 281 14.8
2004-11-05 08:57:54 51°15.999 2°46.371 288 13.1 282 15.1
2004-11-05 08:58:00 51°16.004 2°46.335 286.6 13.2 280 15
2004-11-05 08:58:06 51°16.009 2°46.301 287.9 13.4 283 14.9
2004-11-05 08:58:10 51°16.012 2°46.278 287.9 13.3 281 14.6
2004-11-05 08:58:14 51°16.015 2°46.255 287.6 13.3 281 14.4
2004-11-05 08:58:20 51°16.019 2°46.221 287.9 13.2 282 14.4
2004-11-05 08:58:26 51°16.024 2°46.186 286.8 13.2 282 14.3
2004-11-05 08:58:29 51°16.026 2°46.168 287 13.4 282 12.9
2004-11-05 08:58:35 51°16.031 2°46.134 287.6 13.4 282 13.1
2004-11-05 08:58:38 51°16.033 2°46.116 287 13.3 282 13.3
2004-11-05 08:58:45 51°16.038 2°46.077 287.3 13.3 282 13.5
2004-11-05 08:58:50 51°16.041 2°46.049 287.2 13.1 279 13.2
2004-11-05 08:58:55 51°16.044 2°46.02 287.1 12.8 279 13.8
2004-11-05 08:58:59 51°16.047 2°45.998 286 12.6 281 -999
2004-11-05 08:59:04 51°16.05 2°45.971 286.4 12.6 280 13
2004-11-05 08:59:10 51°16.055 2°45.938 286.8 12.7 282 12.6
2004-11-05 08:59:15 51°16.058 2°45.911 287.4 12.7 282 12.9
2004-11-05 08:59:20 51°16.062 2°45.882 287.4 12.7 282 13
2004-11-05 08:59:25 51°16.066 2°45.854 287.1 13 282 12.7
2004-11-05 08:59:29 51°16.069 2°45.831 287.3 13.2 282 12.6
2004-11-05 08:59:35 51°16.073 2°45.797 287.4 13.3 282 12.3
2004-11-05 08:59:39 51°16.076 2°45.774 287.4 13.3 282 11.8
2004-11-05 08:59:45 51°16.081 2°45.741 287.1 12.9 282 -999
2004-11-05 08:59:49 51°16.085 2°45.718 288.9 12.9 287 12.3
2004-11-05 08:59:54 51°16.091 2°45.692 293.2 12.9 291 12.4
2004-11-05 09:00:00 51°16.101 2°45.661 298.1 12.9 294 12.5
2004-11-05 09:00:05 51°16.11 2°45.636 302 12.9 297 12.3
2004-11-05 09:00:07 51°16.113 2°45.626 305.3 13.1 300 12.4
2004-11-05 09:00:14 51°16.128 2°45.591 307.9 13.2 304 12.2
2004-11-05 09:00:20 51°16.14 2°45.562 309.3 13.2 304 12.3
2004-11-05 09:00:25 51°16.151 2°45.539 310.6 13.1 306 11.8
2004-11-05 09:00:30 51°16.162 2°45.516 311.3 13 307 11.7
2004-11-05 09:00:35 51°16.173 2°45.493 312 13.1 307 11.6
2004-11-05 09:00:40 51°16.183 2°45.47 312.4 13.1 307 11.6
2004-11-05 09:00:45 51°16.194 2°45.446 312 13.1 307 10.9
2004-11-05 09:00:47 51°16.199 2°45.437 312.2 13.3 306 11.1
2004-11-05 09:00:54 51°16.214 2°45.404 312.2 13.3 306 11.1
2004-11-05 09:00:59 51°16.224 2°45.381 311.7 13.3 306 11.5
2004-11-05 09:01:05 51°16.238 2°45.352 312.8 13.3 306 11.3
2004-11-05 09:01:10 51°16.248 2°45.329 312 13.2 307 11.4
2004-11-05 09:01:14 51°16.257 2°45.31 311.7 13.2 307 11.6
2004-11-05 09:01:18 51°16.265 2°45.291 311.7 13.2 307 11.8
2004-11-05 09:01:24 51°16.278 2°45.262 312 13.2 307 11.7
2004-11-05 09:01:29 51°16.29 2°45.239 311.9 13.3 307 11.8
2004-11-05 09:01:35 51°16.303 2°45.211 312 13.4 306 11.6
2004-11-05 09:01:38 51°16.309 2°45.196 312.1 13.1 306 11.3
2004-11-05 09:01:46 51°16.327 2°45.159 311.3 13.3 305 11.3
2004-11-05 09:01:50 51°16.335 2°45.14 311.7 13.2 307 11.3
2004-11-05 09:01:54 51°16.344 2°45.12 311.9 13.2 307 11.2
2004-11-05 09:02:00 51°16.358 2°45.092 312.3 13 307 11.9
2004-11-05 09:02:06 51°16.37 2°45.065 312.1 13 306 11.9
2004-11-05 09:02:10 51°16.379 2°45.046 312.1 13 308 12.1
2004-11-05 09:02:16 51°16.392 2°45.018 312.8 13.1 307 11.9
2004-11-05 09:02:20 51°16.401 2°45 313 13.1 307 11.9
2004-11-05 09:02:26 51°16.414 2°44.972 313.2 13.2 308 11.6
2004-11-05 09:02:30 51°16.423 2°44.954 313.2 13.2 308 11.8
2004-11-05 09:02:36 51°16.437 2°44.925 312.8 13.2 307 11.5
2004-11-05 09:02:40 51°16.446 2°44.907 312.9 13.2 307 11.5
2004-11-05 09:02:46 51°16.459 2°44.879 312.4 13.3 307 11.4
2004-11-05 09:02:50 51°16.468 2°44.861 312.8 13.3 308 11
2004-11-05 09:02:56 51°16.481 2°44.833 313 13.1 307 11
2004-11-05 09:03:00 51°16.49 2°44.815 312.9 13.1 308 11.1
2004-11-05 09:03:06 51°16.503 2°44.787 313.2 13.2 308 11.2
2004-11-05 09:03:10 51°16.512 2°44.769 312.8 12.9 307 11.1
2004-11-05 09:03:16 51°16.525 2°44.741 312.5 13 307 11.4
2004-11-05 09:03:18 51°16.529 2°44.732 312.8 13.3 307 11.7
2004-11-05 09:03:26 51°16.547 2°44.694 313.1 13.3 307 11.8
2004-11-05 09:03:29 51°16.553 2°44.68 312.4 13.2 306 11.9
2004-11-05 09:03:35 51°16.566 2°44.653 312.6 12.9 307 12.1
2004-11-05 09:03:40 51°16.577 2°44.63 313.2 12.8 308 12.5
2004-11-05 09:03:46 51°16.59 2°44.603 313.2 12.8 308 12.5
2004-11-05 09:03:50 51°16.6 2°44.585 313.3 13.3 308 12.6
2004-11-05 09:03:54 51°16.608 2°44.567 313.2 12.8 307 12.8
2004-11-05 09:04:00 51°16.621 2°44.54 312.8 12.6 306 12.8
2004-11-05 09:04:05 51°16.632 2°44.517 312.1 12.8 307 13.3
2004-11-05 09:04:08 51°16.638 2°44.503 313 13.1 309 13.8
2004-11-05 09:04:16 51°16.656 2°44.467 313.5 13 308 14.1
2004-11-05 09:04:18 51°16.661 2°44.459 314.5 13 310 14.7
2004-11-05 09:04:26 51°16.68 2°44.424 316.2 12.9 311 14.7
2004-11-05 09:04:30 51°16.69 2°44.407 317.5 13 312 15.2
2004-11-05 09:04:36 51°16.704 2°44.382 317.8 13 312 15.2
2004-11-05 09:04:40 51°16.714 2°44.364 317.8 13.1 313 15.1
2004-11-05 09:04:46 51°16.73 2°44.339 318.5 13.2 313 15.4
2004-11-05 09:04:50 51°16.74 2°44.322 318.8 13.4 313 15.6
2004-11-05 09:04:54 51°16.749 2°44.304 318.3 13.3 312 15.5
2004-11-05 09:04:58 51°16.759 2°44.287 317.4 13.4 311 15.8
2004-11-05 09:05:06 51°16.778 2°44.251 316.1 13.4 311 15.6
2004-11-05 09:05:10 51°16.788 2°44.233 315.4 13.4 310 15.7
2004-11-05 09:05:16 51°16.802 2°44.205 314.8 13.4 309 15.7
2004-11-05 09:05:20 51°16.811 2°44.187 314.3 13.4 309 15.9
2004-11-05 09:05:26 51°16.824 2°44.159 314 13.1 308 15.9
2004-11-05 09:05:32 51°16.838 2°44.131 313.6 13.3 308 16.1
2004-11-05 09:05:36 51°16.847 2°44.112 313.5 13.3 308 16.2
2004-11-05 09:05:38 51°16.851 2°44.104 313.6 13 309 15.9
2004-11-05 09:05:48 51°16.873 2°44.059 314.2 13 308 16.3
2004-11-05 09:05:54 51°16.887 2°44.031 313.4 13 307 16.1
2004-11-05 09:05:58 51°16.896 2°44.013 313.7 13.1 309 16.4
2004-11-05 09:06:04 51°16.909 2°43.987 313.7 13.1 309 15.9
2004-11-05 09:06:08 51°16.918 2°43.969 313.5 12.9 308 16
2004-11-05 09:06:14 51°16.931 2°43.941 314.2 12.8 307 16.1
2004-11-05 09:06:18 51°16.94 2°43.923 313.8 12.9 307 15.7
2004-11-05 09:06:24 51°16.953 2°43.897 312.9 12.8 308 15.8
2004-11-05 09:06:26 51°16.957 2°43.888 313.5 12.7 308 16.2
2004-11-05 09:06:46 51°17 2°43.8 314.5 12.8 308 15.7
2004-11-05 09:06:52 51°17.013 2°43.774 314.2 12.6 309 15.5
2004-11-05 09:06:58 51°17.026 2°43.747 314.4 12.6 305 15.2
2004-11-05 09:07:02 51°17.033 2°43.728 310.6 12.5 300 15.5
2004-11-05 09:07:08 51°17.041 2°43.698 304.8 12.6 297 15.1
2004-11-05 09:07:12 51°17.046 2°43.677 301.4 12.6 297 -999
2004-11-05 09:07:16 51°17.051 2°43.656 298 12.7 288 15.2
2004-11-05 09:07:22 51°17.057 2°43.624 293.8 12.7 287 15.3
2004-11-05 09:07:32 51°17.063 2°43.567 288.2 12.9 282 15.3
2004-11-05 09:07:36 51°17.065 2°43.544 285.5 13 280 15.5
2004-11-05 09:07:42 51°17.068 2°43.51 283.4 13.1 277 15.1
2004-11-05 09:07:46 51°17.07 2°43.487 282.2 13.2 277 15.2
2004-11-05 09:07:52 51°17.072 2°43.451 281.3 13.2 276 15.2
2004-11-05 09:07:58 51°17.073 2°43.417 281.2 13.3 276 14.1
2004-11-05 09:08:02 51°17.074 2°43.394 280.7 13.1 275 15.3
2004-11-05 09:08:06 51°17.076 2°43.371 279.9 13.2 276 15.5
2004-11-05 09:08:12 51°17.078 2°43.336 280.7 13.2 276 14.5
2004-11-05 09:08:14 51°17.078 2°43.324 279.9 13.3 274 13.3
2004-11-05 09:08:22 51°17.081 2°43.278 280 13.2 273 14.1
2004-11-05 09:08:28 51°17.083 2°43.243 279.8 13.3 276 14.4
2004-11-05 09:08:34 51°17.085 2°43.208 279.9 13.4 275 13.4
2004-11-05 09:08:38 51°17.086 2°43.185 280.3 13.2 274 11.8
2004-11-05 09:08:44 51°17.088 2°43.15 280.6 13.2 275 13.4
2004-11-05 09:08:48 51°17.089 2°43.127 280.1 13.3 275 13.6
2004-11-05 09:08:52 51°17.091 2°43.103 280.7 13.3 276 13.8
2004-11-05 09:08:58 51°17.093 2°43.068 281.2 13.3 277 14
2004-11-05 09:09:02 51°17.094 2°43.044 280.2 13.5 274 13.3
2004-11-05 09:09:08 51°17.097 2°43.01 282.1 13.2 278 13
2004-11-05 09:09:14 51°17.099 2°42.974 280.8 13.3 275 -999
2004-11-05 09:09:18 51°17.101 2°42.951 282 13.2 277 12.2
2004-11-05 09:09:28 51°17.104 2°42.894 280.8 13.2 275 10.1
2004-11-05 09:09:30 51°17.105 2°42.883 281.6 12.8 275 11.2
2004-11-05 09:09:44 51°17.109 2°42.804 280.3 12.8 275 10
2004-11-05 09:09:48 51°17.111 2°42.781 281.8 13 278 11.1
2004-11-05 09:10:08 51°17.12 2°42.666 282.9 13.1 278 10.5
2004-11-05 09:10:12 51°17.122 2°42.643 282.1 13.3 277 11.2
2004-11-05 09:10:16 51°17.124 2°42.62 282.9 13.3 277 10.8
2004-11-05 09:10:28 51°17.131 2°42.549 283.3 13.5 278 10.9
2004-11-05 09:10:32 51°17.133 2°42.525 284 13.5 278 11
2004-11-05 09:10:38 51°17.135 2°42.491 283.2 13.5 278 11.3
2004-11-05 09:10:42 51°17.136 2°42.467 281.4 13.6 275 11.6
2004-11-05 09:10:48 51°17.138 2°42.43 280 13.7 276 12.1
2004-11-05 09:10:54 51°17.14 2°42.394 279.9 13.7 276 12.7
2004-11-05 09:10:56 51°17.14 2°42.382 279 13.7 271 13.7
2004-11-05 09:11:02 51°17.141 2°42.345 277.9 13.7 273 15.2
2004-11-05 09:11:08 51°17.143 2°42.309 278.4 13.8 274 17.3
2004-11-05 09:11:12 51°17.143 2°42.285 278.5 13.8 274 18.8
2004-11-05 09:11:16 51°17.144 2°42.261 277.9 13.8 272 19.6
2004-11-05 09:11:20 51°17.145 2°42.237 277.9 13.6 272 20.3
2004-11-05 09:11:28 51°17.146 2°42.189 277.5 13.4 273 20.6
2004-11-05 09:11:32 51°17.147 2°42.165 277.8 13.4 273 21.2
2004-11-05 09:11:38 51°17.147 2°42.13 278.3 13.4 273 21.3
2004-11-05 09:11:44 51°17.148 2°42.095 278.1 12.9 271 -999
2004-11-05 09:11:48 51°17.147 2°42.073 277.1 12.9 269 21.7
2004-11-05 09:11:52 51°17.148 2°42.051 276.7 12.6 272 21.9
2004-11-05 09:11:58 51°17.149 2°42.016 277.7 12.7 273 22.5
2004-11-05 09:12:03 51°17.15 2°41.988 278.2 12.9 273 22.9
2004-11-05 09:12:06 51°17.151 2°41.971 278.7 12.9 274 23
2004-11-05 09:12:12 51°17.152 2°41.936 278.9 12.9 274 23.2
2004-11-05 09:12:16 51°17.153 2°41.913 279.2 13 274 23
2004-11-05 09:12:28 51°17.155 2°41.844 279.3 13.2 273 23.6
2004-11-05 09:12:32 51°17.156 2°41.82 279.3 13.1 273 23.5
2004-11-05 09:12:38 51°17.158 2°41.785 278.7 13.4 273 23.7
2004-11-05 09:12:48 51°17.16 2°41.727 278.9 13.3 273 24.1
2004-11-05 09:12:52 51°17.16 2°41.703 278.2 13.1 272 24.1
2004-11-05 09:12:58 51°17.162 2°41.669 278.7 13.1 273 24.3
2004-11-05 09:13:02 51°17.162 2°41.646 277.9 13 272 24.4
2004-11-05 09:13:08 51°17.163 2°41.612 278.2 13 274 24.3
2004-11-05 09:13:12 51°17.164 2°41.588 279 13.2 274 24.4
2004-11-05 09:13:16 51°17.166 2°41.565 280.1 13.2 274 24.7
2004-11-05 09:13:22 51°17.168 2°41.53 280.6 13.3 277 24.7
2004-11-05 09:13:28 51°17.171 2°41.495 281.4 13.2 276 24.7
2004-11-05 09:13:32 51°17.172 2°41.472 282.7 13.2 278 24.8
2004-11-05 09:13:38 51°17.175 2°41.437 282.4 13.3 277 24.9
2004-11-05 09:13:40 51°17.176 2°41.425 282.5 13.2 279 24.7
2004-11-05 09:13:46 51°17.179 2°41.391 283 13.2 277 25.2
2004-11-05 09:13:50 51°17.181 2°41.367 282.9 13.3 277 25
2004-11-05 09:13:58 51°17.185 2°41.32 283 13.3 277 24.9
2004-11-05 09:14:02 51°17.186 2°41.297 282.6 13.2 277 24.7
2004-11-05 09:14:08 51°17.19 2°41.262 282.3 13.2 277 24.6
2004-11-05 09:14:11 51°17.191 2°41.244 282.4 13.2 277 24.5
2004-11-05 09:14:17 51°17.194 2°41.209 281.9 13.3 278 24.7
2004-11-05 09:14:22 51°17.195 2°41.18 281.7 13.3 276 24.6
2004-11-05 09:14:28 51°17.198 2°41.144 282.1 13.3 276 24.4
2004-11-05 09:14:32 51°17.199 2°41.121 282 13.3 276 24.5
2004-11-05 09:14:38 51°17.202 2°41.085 282 13.4 277 24.4
2004-11-05 09:14:42 51°17.203 2°41.062 282 13.5 277 24.6
2004-11-05 09:14:48 51°17.206 2°41.028 282.3 13.1 277 24.1
2004-11-05 09:14:52 51°17.207 2°41.005 281.6 13.1 276 24.3
2004-11-05 09:14:58 51°17.209 2°40.97 280.8 13.1 276 24.3
2004-11-05 09:15:02 51°17.211 2°40.947 280.8 13 276 24.1
2004-11-05 09:15:06 51°17.211 2°40.924 279.7 13 276 24.2
2004-11-05 09:15:12 51°17.214 2°40.889 279.7 13.3 275 23.9
2004-11-05 09:15:18 51°17.215 2°40.853 279.6 13.3 274 23.7
2004-11-05 09:15:20 51°17.216 2°40.842 279.5 13.4 275 23.8
2004-11-05 09:15:28 51°17.218 2°40.795 279.4 13.4 273 23.5
2004-11-05 09:15:32 51°17.219 2°40.771 279.5 13.1 275 23.5
2004-11-05 09:15:48 51°17.223 2°40.678 279.3 13.3 273 22.7
2004-11-05 09:15:58 51°17.226 2°40.619 279.3 13.2 274 21.7
2004-11-05 09:16:04 51°17.228 2°40.585 279.1 13.2 274 21.9
2004-11-05 09:16:10 51°17.229 2°40.55 278.7 13.1 273 21.6
2004-11-05 09:16:14 51°17.229 2°40.527 278.7 13.2 273 21.7
2004-11-05 09:16:17 51°17.23 2°40.51 279.2 13.2 273 21.3
2004-11-05 09:16:23 51°17.232 2°40.474 278.7 13.4 274 21.2
2004-11-05 09:16:36 51°17.235 2°40.399 279.1 13.4 275 20.5
2004-11-05 09:16:42 51°17.237 2°40.364 279.3 13.3 274 20.3
2004-11-05 09:16:46 51°17.238 2°40.34 279 13.1 274 19.9
2004-11-05 09:16:52 51°17.24 2°40.305 279.4 13.1 275 19.4
2004-11-05 09:16:56 51°17.24 2°40.282 277.8 13.3 273 19.5
2004-11-05 09:17:02 51°17.242 2°40.247 278.7 13.3 275 18.6
2004-11-05 09:17:06 51°17.243 2°40.223 279.1 13.2 273 17.6
2004-11-05 09:17:10 51°17.245 2°40.2 278.9 13.3 276 15.3
2004-11-05 09:17:24 51°17.248 2°40.117 279.5 13.5 273 17.2
2004-11-05 09:17:26 51°17.25 2°40.105 279.5 13.5 276 16.7
2004-11-05 09:17:34 51°17.252 2°40.058 279.6 13.5 276 16.6
2004-11-05 09:17:38 51°17.253 2°40.035 279.3 13.4 275 15.8
2004-11-05 09:17:42 51°17.254 2°40.012 279.6 13.1 274 15.5
2004-11-05 09:17:58 51°17.259 2°39.918 279 13.2 274 14.8
2004-11-05 09:18:02 51°17.26 2°39.894 278.6 13.4 274 14.7
2004-11-05 09:18:06 51°17.261 2°39.871 278.9 13.4 274 14.5
2004-11-05 09:18:10 51°17.262 2°39.847 278.8 13.2 274 14.2
2004-11-05 09:18:16 51°17.264 2°39.811 278.9 13.5 275 13.7
2004-11-05 09:18:22 51°17.266 2°39.776 280.1 13.5 275 13.7
2004-11-05 09:18:24 51°17.267 2°39.764 279.6 13.5 274 14.6
2004-11-05 09:18:31 51°17.27 2°39.723 280.1 13.5 277 14.3
2004-11-05 09:18:36 51°17.271 2°39.693 279.6 13.5 276 13
2004-11-05 09:18:42 51°17.273 2°39.658 278.9 13.3 273 14.1
2004-11-05 09:18:46 51°17.274 2°39.635 278.7 13.2 275 14.2
2004-11-05 09:19:04 51°17.278 2°39.531 278 12.8 274 13.4
2004-11-05 09:19:08 51°17.279 2°39.508 278.1 12.8 274 12.1
2004-11-05 09:19:14 51°17.28 2°39.477 278.6 12.8 274 12.2
2004-11-05 09:19:20 51°17.282 2°39.446 278.6 11.7 274 11.5
2004-11-05 09:19:24 51°17.283 2°39.426 279.1 11.5 275 11.4
2004-11-05 09:19:28 51°17.284 2°39.408 279.5 10.7 274 12.2
2004-11-05 09:19:34 51°17.285 2°39.38 279.8 10.6 275 12.8
2004-11-05 09:19:50 51°17.289 2°39.312 280.5 9.3 276 11.8
2004-11-05 09:19:54 51°17.291 2°39.296 280.9 9.3 276 11.3
2004-11-05 09:20:08 51°17.294 2°39.242 282 8.7 278 12.8
2004-11-05 09:20:12 51°17.295 2°39.227 282.7 8.7 278 13.1
2004-11-05 09:20:18 51°17.297 2°39.206 283.2 8.4 277 13.1
2004-11-05 09:20:24 51°17.299 2°39.185 283.7 8 278 14.4
2004-11-05 09:20:28 51°17.3 2°39.171 284 7.5 278 14.6
2004-11-05 09:20:33 51°17.301 2°39.156 284.5 7.5 278 15.2
2004-11-05 09:20:39 51°17.303 2°39.138 285.4 7.1 280 15.7
2004-11-05 09:20:44 51°17.305 2°39.125 286.6 6.5 280 16.6
2004-11-05 09:20:48 51°17.306 2°39.114 288.1 6.2 283 17.5
2004-11-05 09:21:03 51°17.312 2°39.08 292.9 5.1 284 19.3
2004-11-05 09:21:06 51°17.313 2°39.074 296.5 4.8 289 19
2004-11-05 09:21:16 51°17.318 2°39.056 302.5 4.4 294 19.4
2004-11-05 09:21:20 51°17.321 2°39.05 307.7 4.3 301 19.7
2004-11-05 09:21:26 51°17.325 2°39.042 312.5 4.3 303 19.7
2004-11-05 09:21:30 51°17.328 2°39.037 318.5 3.8 317 20
2004-11-05 09:21:36 51°17.333 2°39.031 325.2 3.4 319 20.1
2004-11-05 09:21:40 51°17.335 2°39.029 331.2 2.8 327 20.2
2004-11-05 09:21:46 51°17.339 2°39.025 338.7 2.6 333 20
2004-11-05 09:21:50 51°17.341 2°39.024 345.4 2.8 336 20.1
2004-11-05 09:21:56 51°17.345 2°39.024 352.5 2.2 343 20.2
2004-11-05 09:22:00 51°17.347 2°39.023 357.6 2 356 20.4
2004-11-05 09:22:06 51°17.35 2°39.023 3.5 1.8 356 20.8
2004-11-05 09:22:10 51°17.351 2°39.024 6 1.4 9 20.9
2004-11-05 09:22:14 51°17.352 2°39.025 10.1 1.1 22 21
2004-11-05 09:22:20 51°17.354 2°39.026 13 0.9 20 20.9
2004-11-05 09:22:26 51°17.355 2°39.026 17.3 0.8 25 20.7
2004-11-05 09:22:32 51°17.355 2°39.027 19.7 0.7 30 20.7
2004-11-05 09:22:34 51°17.355 2°39.027 21.7 0.3 32 20.7
2004-11-05 09:22:39 51°17.355 2°39.028 22.4 0.4 82 20.8
2004-11-05 09:22:46 51°17.355 2°39.029 24.4 0.5 87 20.7
2004-11-05 09:22:50 51°17.355 2°39.03 25.5 0.4 92 20.7
2004-11-05 09:22:56 51°17.355 2°39.031 26.5 0.6 103 20.8
2004-11-05 09:23:00 51°17.355 2°39.032 27.9 0.4 91 20.8
2004-11-05 09:23:06 51°17.355 2°39.033 29 0.6 112 20.7
2004-11-05 09:23:10 51°17.355 2°39.034 30.1 0.5 118 20.6
2004-11-05 09:23:15 51°17.354 2°39.034 31 0.5 118 20.5
2004-11-05 09:23:22 51°17.354 2°39.036 31.9 0.5 118 20.6
2004-11-05 09:23:26 51°17.354 2°39.037 32.6 0.6 139 20.6
2004-11-05 09:23:30 51°17.353 2°39.038 33.2 0.6 123 20.4
2004-11-05 09:23:35 51°17.352 2°39.039 34.8 0.8 136 20.3
2004-11-05 09:23:40 51°17.352 2°39.04 36.1 0.5 134 20.3
2004-11-05 09:23:46 51°17.351 2°39.041 37.7 0.7 132 20.2
2004-11-05 09:23:50 51°17.351 2°39.042 38.5 0.4 131 20.2
2004-11-05 09:23:55 51°17.35 2°39.044 39.2 1 129 20.3
2004-11-05 09:24:00 51°17.349 2°39.045 40.2 0.4 152 20.3
2004-11-05 09:24:10 51°17.349 2°39.046 42.1 0.6 136 19.7
2004-11-05 09:24:14 51°17.348 2°39.047 42.6 0.6 136 19.6
2004-11-05 09:24:28 51°17.347 2°39.05 42.3 0.6 159 19.8
2004-11-05 09:24:32 51°17.346 2°39.05 42 0.6 145 19.8
2004-11-05 09:24:38 51°17.345 2°39.051 42.9 0.6 151 19.9
2004-11-05 09:24:42 51°17.345 2°39.052 43.6 0.8 140 19.9
2004-11-05 09:24:47 51°17.344 2°39.052 44.4 0.8 140 19.8
2004-11-05 09:24:49 51°17.344 2°39.053 44.2 0.5 148 19.9
2004-11-05 09:24:57 51°17.342 2°39.055 44.7 0.5 148 19.9
2004-11-05 09:25:02 51°17.341 2°39.056 45 0.7 136 19.9
2004-11-05 09:25:07 51°17.34 2°39.056 46.4 0.7 153 19.9
2004-11-05 09:25:12 51°17.339 2°39.057 46.6 0.7 153 19.6
2004-11-05 09:25:15 51°17.339 2°39.058 47.9 0.3 158 19.2
2004-11-05 09:25:22 51°17.338 2°39.058 49.4 0.7 164 19.1
2004-11-05 09:25:28 51°17.337 2°39.059 50.5 0.9 152 19
2004-11-05 09:25:32 51°17.336 2°39.059 50.3 0.9 152 19.2
2004-11-05 09:25:38 51°17.335 2°39.06 51.4 0.8 168 19.4
2004-11-05 09:25:42 51°17.334 2°39.06 51.7 0.8 167 19.7
2004-11-05 09:25:46 51°17.333 2°39.06 52.3 0.8 167 19.8
2004-11-05 09:25:51 51°17.332 2°39.061 52.9 0.8 172 19.9
2004-11-05 09:25:58 51°17.331 2°39.061 53.5 0.8 154 19.7
2004-11-05 09:26:02 51°17.33 2°39.062 53 0.6 162 19.6
2004-11-05 09:26:08 51°17.329 2°39.062 52.9 0.6 162 19.7
2004-11-05 09:26:12 51°17.328 2°39.063 53.6 0.8 157 19.7
2004-11-05 09:26:18 51°17.327 2°39.063 53.5 0.7 158 19.5
2004-11-05 09:26:22 51°17.327 2°39.064 53.3 0.8 156 19.6
2004-11-05 09:26:28 51°17.326 2°39.065 53.1 0.6 153 19.5
2004-11-05 09:26:30 51°17.325 2°39.065 52.1 0.5 139 19.3
2004-11-05 09:26:38 51°17.324 2°39.066 51.1 0.5 139 19.1
2004-11-05 09:26:42 51°17.323 2°39.067 50.9 0.6 153 19
2004-11-05 09:26:48 51°17.322 2°39.067 50.2 0.5 166 18.6
2004-11-05 09:26:52 51°17.322 2°39.068 51.2 0.5 166 18.4
2004-11-05 09:26:54 51°17.321 2°39.068 51.9 0.7 155 18.6
2004-11-05 09:27:02 51°17.32 2°39.07 51.5 0.6 146 18.9
2004-11-05 09:27:06 51°17.319 2°39.07 50.9 0.7 149 19
2004-11-05 09:27:12 51°17.319 2°39.071 50.8 0.7 154 19.1
2004-11-05 09:27:16 51°17.318 2°39.072 51.7 0.8 143 19.2
2004-11-05 09:27:22 51°17.317 2°39.072 51.7 0.6 153 19.5
2004-11-05 09:27:26 51°17.316 2°39.074 51 0.8 154 19.6
2004-11-05 09:27:32 51°17.315 2°39.075 51.1 0.8 154 19.5
2004-11-05 09:27:38 51°17.314 2°39.076 51.6 0.8 149 19.2
2004-11-05 09:27:42 51°17.313 2°39.076 51.7 0.6 134 18.9
2004-11-05 09:27:48 51°17.312 2°39.077 51.5 0.4 139 18.8
2004-11-05 09:27:50 51°17.312 2°39.078 50.2 0.7 154 18.9
2004-11-05 09:27:56 51°17.311 2°39.078 50.7 0.6 148 19.1
2004-11-05 09:28:02 51°17.31 2°39.08 51 0.5 141 19.1
2004-11-05 09:28:06 51°17.31 2°39.08 50.7 0.5 156 19
2004-11-05 09:28:12 51°17.309 2°39.081 50.9 0.7 131 18.8
2004-11-05 09:28:16 51°17.308 2°39.082 51.4 0.5 150 18.7
2004-11-05 09:28:22 51°17.307 2°39.083 50.9 0.8 146 18.5
2004-11-05 09:28:28 51°17.307 2°39.084 50.3 0.8 146 18.2
2004-11-05 09:28:32 51°17.306 2°39.085 50.7 0.8 140 18
2004-11-05 09:28:36 51°17.306 2°39.085 51.9 0.7 144 18
2004-11-05 09:28:42 51°17.305 2°39.087 52.2 0.7 136 18.1
2004-11-05 09:28:48 51°17.304 2°39.087 52.6 0.4 139 18.3
2004-11-05 09:28:52 51°17.304 2°39.088 51.7 0.4 146 18.4
2004-11-05 09:28:56 51°17.303 2°39.088 50.8 0.7 143 18.3
2004-11-05 09:29:02 51°17.303 2°39.089 50.1 0.4 142 18.4
2004-11-05 09:29:08 51°17.302 2°39.09 49.5 0.7 146 18.1
2004-11-05 09:29:12 51°17.301 2°39.091 49.3 0.7 145 18
2004-11-05 09:29:18 51°17.301 2°39.091 49.5 0.5 140 17.7
2004-11-05 09:29:22 51°17.3 2°39.092 49.3 0.5 138 17.8
2004-11-05 09:29:28 51°17.3 2°39.093 49.1 0.7 141 17.6
2004-11-05 09:29:30 51°17.3 2°39.093 48.8 0.3 143 17.6
2004-11-05 09:29:50 51°17.297 2°39.096 47.5 0.8 141 17.5
2004-11-05 09:29:56 51°17.296 2°39.098 47.2 0.7 136 17.5
2004-11-05 09:29:58 51°17.297 2°39.097 47 0.6 144 17.4
2004-11-05 09:30:06 51°17.295 2°39.099 47 0.9 131 17.1
2004-11-05 09:30:12 51°17.295 2°39.1 46.9 0.9 131 17.1
2004-11-05 09:30:16 51°17.295 2°39.1 46.1 0.2 133 16.9
2004-11-05 09:30:28 51°17.293 2°39.102 46.8 0.8 137 17.1
2004-11-05 09:30:32 51°17.293 2°39.102 47 0.5 133 17
2004-11-05 09:30:38 51°17.292 2°39.103 47 0.5 133 16.9
2004-11-05 09:30:42 51°17.292 2°39.104 47.8 0.5 158 16.9
2004-11-05 09:30:48 51°17.291 2°39.105 47.5 0.5 147 16.7
2004-11-05 09:30:52 51°17.291 2°39.105 46.6 0.5 151 16.5
2004-11-05 09:30:56 51°17.29 2°39.105 47.1 0.5 142 16.4
2004-11-05 09:31:02 51°17.289 2°39.106 47.1 0.4 163 16.2
2004-11-05 09:31:08 51°17.288 2°39.106 47.8 0.4 165 16.1
2004-11-05 09:31:12 51°17.288 2°39.107 48.6 0.6 156 16
2004-11-05 09:31:18 51°17.287 2°39.108 49 0.8 149 15.8
2004-11-05 09:31:22 51°17.287 2°39.108 48.3 0.3 168 15.6
2004-11-05 09:31:28 51°17.286 2°39.109 48.6 0.8 155 15.7
2004-11-05 09:31:32 51°17.285 2°39.109 48.6 0.6 163 15.8
2004-11-05 09:31:38 51°17.284 2°39.11 48.1 0.5 158 15.5
2004-11-05 09:31:42 51°17.283 2°39.11 49 0.7 154 15.3
2004-11-05 09:31:48 51°17.283 2°39.111 50 0.4 164 15.3
2004-11-05 09:31:52 51°17.282 2°39.111 50.3 0.5 153 15.3
2004-11-05 09:31:58 51°17.281 2°39.112 50.2 0.5 159 15.3
2004-11-05 09:32:02 51°17.281 2°39.112 50.1 0.6 156 15.3
2004-11-05 09:32:08 51°17.28 2°39.113 50.4 0.5 172 15.2
2004-11-05 09:32:12 51°17.279 2°39.113 50.2 0.5 145 15.1
2004-11-05 09:32:18 51°17.279 2°39.114 49.5 0.5 145 15
2004-11-05 09:32:22 51°17.278 2°39.115 50 0.4 159 14.9
2004-11-05 09:32:28 51°17.277 2°39.116 50.4 0.5 146 14.6
2004-11-05 09:32:32 51°17.276 2°39.116 51.3 0.5 143 14.3
2004-11-05 09:32:38 51°17.276 2°39.116 52 0.5 155 13.9
2004-11-05 09:32:42 51°17.275 2°39.117 52.1 0.5 155 13.8
2004-11-05 09:32:46 51°17.274 2°39.117 51.8 0.3 175 13.9
2004-11-05 09:32:52 51°17.273 2°39.117 52.1 0.5 163 14.1
2004-11-05 09:32:58 51°17.273 2°39.118 53.5 0.5 175 14.3
2004-11-05 09:33:02 51°17.272 2°39.119 53.4 0.7 159 14.4
2004-11-05 09:33:08 51°17.271 2°39.119 53.2 0.7 159 14.5
2004-11-05 09:33:12 51°17.27 2°39.119 52.9 0.4 164 14.4
2004-11-05 09:33:18 51°17.269 2°39.119 52.9 0.6 161 14.3
2004-11-05 09:33:22 51°17.269 2°39.119 52.6 0.6 161 14.2
2004-11-05 09:33:26 51°17.268 2°39.119 52.5 0.6 172 14.3
2004-11-05 09:33:32 51°17.268 2°39.12 52.2 0.6 172 14
2004-11-05 09:33:38 51°17.266 2°39.12 52.5 0.6 156 13.8
2004-11-05 09:33:42 51°17.266 2°39.121 53.4 0.4 160 13.8
2004-11-05 09:33:46 51°17.265 2°39.121 53.7 0.6 157 13.7
2004-11-05 09:33:52 51°17.264 2°39.121 53.4 0.6 157 13.5
2004-11-05 09:33:58 51°17.264 2°39.122 53.5 0.6 163 13.5
2004-11-05 09:34:00 51°17.264 2°39.122 53.9 0.6 154 13.3
2004-11-05 09:34:08 51°17.262 2°39.123 54.6 0.3 144 13.3
2004-11-05 09:34:12 51°17.262 2°39.124 54.4 0.6 147 13.2
2004-11-05 09:34:18 51°17.261 2°39.125 53.8 0.7 143 13.4
2004-11-05 09:34:22 51°17.261 2°39.125 52.9 0.4 133 13.3
2004-11-05 09:34:28 51°17.26 2°39.126 52.6 0.4 133 13.1
2004-11-05 09:34:32 51°17.26 2°39.126 52.3 0.7 138 13.2
2004-11-05 09:34:38 51°17.259 2°39.127 51.6 0.5 139 13.2
2004-11-05 09:34:42 51°17.258 2°39.128 51.5 0.3 137 13
2004-11-05 09:34:48 51°17.258 2°39.129 51.3 0.2 92 12.9
2004-11-05 09:34:52 51°17.259 2°39.13 51.3 0.5 65 12.9
2004-11-05 09:34:58 51°17.259 2°39.132 49.3 0.5 65 12.8
2004-11-05 09:35:02 51°17.259 2°39.135 48.2 1.1 83 12.6
2004-11-05 09:35:08 51°17.26 2°39.138 47.9 1.2 55 13.1
2004-11-05 09:35:12 51°17.261 2°39.139 46.6 1.4 68 13
2004-11-05 09:35:18 51°17.263 2°39.143 45.8 1.4 68 12.9
2004-11-05 09:35:22 51°17.264 2°39.146 45.6 1.9 50 13.2
2004-11-05 09:35:28 51°17.267 2°39.15 44.9 2 48 13.4
2004-11-05 09:35:32 51°17.268 2°39.152 44 2.2 45 13.4
2004-11-05 09:35:38 51°17.271 2°39.157 43.8 2.3 46 13.3
2004-11-05 09:35:42 51°17.273 2°39.16 44.3 2.6 41 13.2
2004-11-05 09:35:48 51°17.277 2°39.165 43.4 2.6 43 13.2
2004-11-05 09:35:52 51°17.279 2°39.168 42.5 2.9 41 13.3
2004-11-05 09:35:58 51°17.283 2°39.174 42.1 2.9 39 13.7
2004-11-05 09:36:02 51°17.285 2°39.177 41.7 3.2 43 13.6
2004-11-05 09:36:08 51°17.289 2°39.183 42 3.2 43 13.6
2004-11-05 09:36:24 51°17.3 2°39.199 42.8 3.3 48 12.7
2004-11-05 09:36:30 51°17.304 2°39.205 42.8 3.3 43 12.7
2004-11-05 09:36:34 51°17.307 2°39.209 43.7 3.4 47 12.7
2004-11-05 09:36:38 51°17.309 2°39.214 43.9 3.4 44 13.9
2004-11-05 09:36:42 51°17.312 2°39.218 44.6 3.6 42 14
2004-11-05 09:36:48 51°17.316 2°39.224 44.2 3.6 42 13.9
2004-11-05 09:36:54 51°17.321 2°39.231 43.5 3.5 46 13.9
2004-11-05 09:36:58 51°17.323 2°39.236 43.9 3.8 43 13.6
2004-11-05 09:37:04 51°17.328 2°39.242 45.5 3.8 44 13.5
2004-11-05 09:37:08 51°17.331 2°39.247 46.7 3.8 45 13.3
2004-11-05 09:37:14 51°17.335 2°39.254 46.6 3.7 42 13.5
2004-11-05 09:37:18 51°17.338 2°39.259 45.7 3.7 46 14
2004-11-05 09:37:22 51°17.341 2°39.264 45.1 3.8 48 15.1
2004-11-05 09:37:28 51°17.345 2°39.271 46.4 3.9 48 15.1
2004-11-05 09:37:34 51°17.349 2°39.277 47.7 3.8 44 15.1
2004-11-05 09:37:46 51°17.358 2°39.292 46.6 3.9 48 15.5
2004-11-05 09:37:50 51°17.361 2°39.297 46.3 3.9 41 15.4
2004-11-05 09:37:56 51°17.366 2°39.304 45.4 3.9 51 15.7
2004-11-05 09:37:58 51°17.367 2°39.307 46 3.9 44 15.2
2004-11-05 09:38:06 51°17.374 2°39.316 46.9 4 46 15.1
2004-11-05 09:38:10 51°17.376 2°39.321 46.3 3.8 44 15.4
2004-11-05 09:38:14 51°17.379 2°39.327 46.2 4 46 15.3
2004-11-05 09:38:18 51°17.383 2°39.331 46.4 4 51 15.1
2004-11-05 09:38:26 51°17.389 2°39.342 46.8 4.1 39 14.6
2004-11-05 09:38:28 51°17.39 2°39.345 47.1 4.2 44 14.4
2004-11-05 09:38:36 51°17.397 2°39.355 46.8 4.2 48 14.4
2004-11-05 09:38:38 51°17.399 2°39.358 46.7 4.3 47 14.7
2004-11-05 09:38:46 51°17.406 2°39.369 47.3 4.3 45 14.9
2004-11-05 09:38:50 51°17.409 2°39.374 46.7 4.4 45 15.1
2004-11-05 09:38:56 51°17.415 2°39.381 44.8 4.4 41 15.2
2004-11-05 09:39:00 51°17.419 2°39.386 43.2 4.4 39 15.1
2004-11-05 09:39:06 51°17.424 2°39.393 41.6 4.4 39 15.2
2004-11-05 09:39:10 51°17.428 2°39.398 39.4 4.4 40 15.1
2004-11-05 09:39:16 51°17.434 2°39.405 38.5 4.5 37 15.2
2004-11-05 09:39:20 51°17.438 2°39.41 38.1 4.4 38 15.6
2004-11-05 09:39:26 51°17.444 2°39.416 37.1 4.4 33 15.6
2004-11-05 09:39:28 51°17.446 2°39.418 35.5 4.3 34 16.1
2004-11-05 09:39:48 51°17.467 2°39.436 30.6 4.1 27 16.6
2004-11-05 09:39:50 51°17.469 2°39.438 29.9 4.2 28 16.8
2004-11-05 09:39:58 51°17.477 2°39.446 28.5 4.4 25 17.2
2004-11-05 09:40:02 51°17.481 2°39.449 28.3 4.2 28 16.7
2004-11-05 09:40:08 51°17.488 2°39.453 28.1 4.2 28 17
2004-11-05 09:40:10 51°17.49 2°39.456 27.7 4.3 29 16.9
2004-11-05 09:40:18 51°17.499 2°39.461 26.4 4.4 27 17.4
2004-11-05 09:40:22 51°17.503 2°39.465 25.2 4.3 23 17.6
2004-11-05 09:40:28 51°17.51 2°39.469 24.4 4.1 25 17.9
2004-11-05 09:40:32 51°17.513 2°39.471 22.9 3.9 18 17.6
2004-11-05 09:40:38 51°17.519 2°39.474 21.6 3.4 21 18.2
2004-11-05 09:40:42 51°17.522 2°39.476 21.6 3 21 18.1
2004-11-05 09:40:46 51°17.525 2°39.477 20.3 3 22 18.5
2004-11-05 09:40:52 51°17.529 2°39.48 20.8 2.5 23 18.3
2004-11-05 09:40:58 51°17.532 2°39.482 22.1 2.4 27 19
2004-11-05 09:41:02 51°17.534 2°39.484 24.6 2.1 22 18.7
2004-11-05 09:41:08 51°17.536 2°39.486 27.3 1.8 27 18.4
2004-11-05 09:41:12 51°17.538 2°39.488 29.7 1.8 27 18.1
2004-11-05 09:41:18 51°17.539 2°39.49 31.5 1.6 57 18.2
2004-11-05 09:41:24 51°17.54 2°39.492 32.4 1 37 18.6
2004-11-05 09:41:28 51°17.541 2°39.493 31.9 0.9 29 18.7
2004-11-05 09:41:32 51°17.542 2°39.493 31 0.7 29 18.7
2004-11-05 09:41:36 51°17.542 2°39.494 30.9 0.6 55 18.7
2004-11-05 09:41:42 51°17.543 2°39.495 31.3 0.4 36 18.8
2004-11-05 09:41:48 51°17.543 2°39.496 31.5 0.5 74 18.9
2004-11-05 09:41:52 51°17.543 2°39.497 32.2 0.5 103 18.9
2004-11-05 09:41:58 51°17.543 2°39.498 32.4 0.5 103 18.5
2004-11-05 09:42:02 51°17.542 2°39.5 32.2 0.8 110 18.3
2004-11-05 09:42:08 51°17.541 2°39.5 32.4 0.1 103 17.7
2004-11-05 09:42:12 51°17.541 2°39.5 33.7 0.4 144 17.4
2004-11-05 09:42:17 51°17.541 2°39.501 35.7 0.4 123 17.4
2004-11-05 09:42:22 51°17.541 2°39.501 36.5 0.1 116 17.8
2004-11-05 09:42:28 51°17.54 2°39.502 37 0.6 121 18.2
2004-11-05 09:42:32 51°17.539 2°39.503 36.4 0.5 155 18.6
2004-11-05 09:42:38 51°17.539 2°39.504 36.6 0.4 165 18.6
2004-11-05 09:42:42 51°17.538 2°39.504 38.6 0.5 138 18.7
2004-11-05 09:42:46 51°17.538 2°39.504 39.9 0.1 108 19
2004-11-05 09:42:52 51°17.537 2°39.505 39.8 0.4 147 19.3
2004-11-05 09:42:56 51°17.537 2°39.506 40.3 0.2 145 19.4
2004-11-05 09:43:02 51°17.536 2°39.507 40.1 0.7 138 19.3
2004-11-05 09:43:06 51°17.536 2°39.507 40.3 0.4 148 19
2004-11-05 09:43:12 51°17.536 2°39.507 40.7 0.5 141 18.8
2004-11-05 09:43:16 51°17.535 2°39.508 41.2 0.5 141 18.6
2004-11-05 09:43:20 51°17.535 2°39.508 41.6 0.5 150 18.6
2004-11-05 09:43:32 51°17.534 2°39.51 42.2 0.5 146 18.4
2004-11-05 09:43:34 51°17.534 2°39.51 42.6 0.2 168 18.4
2004-11-05 09:43:40 51°17.533 2°39.51 42.5 0.6 145 18.3
2004-11-05 09:43:46 51°17.532 2°39.511 43 0.4 148 18.2
2004-11-05 09:43:52 51°17.532 2°39.512 43.2 0.5 158 18.2
2004-11-05 09:43:56 51°17.531 2°39.513 42.8 0.3 154 18.2
2004-11-05 09:44:02 51°17.53 2°39.514 43.5 0.7 144 17.8
2004-11-05 09:44:06 51°17.53 2°39.514 44.9 0.6 142 17.1
2004-11-05 09:44:28 51°17.526 2°39.516 47.5 0.1 146 16.8
2004-11-05 09:44:32 51°17.526 2°39.516 47.5 0.4 166 17
2004-11-05 09:44:38 51°17.525 2°39.518 47.9 1 150 17
2004-11-05 09:44:44 51°17.524 2°39.517 48 0.2 207 17
2004-11-05 09:44:48 51°17.524 2°39.518 47.8 0.2 207 17
2004-11-05 09:44:52 51°17.523 2°39.518 47.8 0.2 207 16.9
2004-11-05 09:44:58 51°17.522 2°39.519 47 0.7 148 17.3
2004-11-05 09:45:04 51°17.522 2°39.519 46.1 0.7 158 16.9
2004-11-05 09:45:08 51°17.521 2°39.519 45.3 0.6 172 16.6
2004-11-05 09:45:12 51°17.521 2°39.52 45.7 0.5 168 16.2
2004-11-05 09:45:28 51°17.519 2°39.521 44.2 0.3 186 16.3
2004-11-05 09:45:32 51°17.518 2°39.521 43.7 0.3 186 16.5
2004-11-05 09:45:38 51°17.518 2°39.521 43 0.3 186 16.5
2004-11-05 09:45:42 51°17.517 2°39.522 43.4 0.5 152 16.5
2004-11-05 09:45:46 51°17.516 2°39.522 43.5 0.5 164 16.5
2004-11-05 09:45:52 51°17.515 2°39.522 43.2 0.5 164 16.4
2004-11-05 09:45:58 51°17.514 2°39.522 43.6 0.7 168 16.3
2004-11-05 09:46:02 51°17.514 2°39.522 43.9 0.6 166 16.3
2004-11-05 09:46:08 51°17.513 2°39.522 44.6 0.5 166 16.2
2004-11-05 09:46:12 51°17.512 2°39.522 44.8 0.5 166 16
2004-11-05 09:46:18 51°17.512 2°39.523 44.5 0.5 166 15.7
2004-11-05 09:46:24 51°17.511 2°39.523 44.8 0.5 174 15.6
2004-11-05 09:46:26 51°17.51 2°39.524 47.1 0.8 157 15.6
2004-11-05 09:46:32 51°17.509 2°39.524 47.4 0.6 172 15.6
2004-11-05 09:46:38 51°17.508 2°39.524 47.6 0.5 175 15.5
2004-11-05 09:46:42 51°17.508 2°39.525 48 0.5 164 15.6